Regional Weather Roundup
Issued by NWS

Home | Current Version | Previous Version | Text Only | Print | Product List | Glossary Off
Versions: 1 2 3 4 5 6 7 8 9 10 11 12 13 14 15 16 17 18 19 20 21 22 23 24 25 26 27 28 29 30 31 32 33 34 35 36 37 38 39 40 41 42 43 44 45 46 47 48 49 50

000
ASUS43 KLOT 260009
RWRIL

ILLINOIS REGIONAL WEATHER ROUNDUP
NATIONAL WEATHER SERVICE CHICAGO/ROMEOVILLE IL
700 PM CDT THU MAY 25 2017

NOTE: "FAIR" INDICATES FEW OR NO CLOUDS BELOW 12,000 FEET WITH NO
SIGNIFICANT WEATHER AND/OR OBSTRUCTIONS TO VISIBILITY.

* THESE STATIONS ARE NOT UNDER NWS QUALITY CONTROL. THEY ALSO MAY NOT
  REPORT WEATHER SUCH AS PRECIPITATION OR FOG.

ILZ001-002-007-009-015-016-024-260100-
NORTHWEST ILLINOIS

CITY           SKY/WX    TMP DP  RH WIND       PRES   REMARKS
MOLINE         SUNNY     72  52  49 NE6       29.68R
6HR MIN TEMP:  68; 6HR MAX TEMP:  74;

STERLING*      MOSUNNY   68  56  65 CALM      29.70R
SAVANNA*       SUNNY     68  55  62 SW3       29.70R
$$

ILZ003-004-008-010-011-017-018-260100-
NORTH CENTRAL ILLINOIS

CITY           SKY/WX    TMP DP  RH WIND       PRES   REMARKS
ROCKFORD       MOSUNNY   70  51  51 NW5       29.69R
6HR MIN TEMP:  63; 6HR MAX TEMP:  71;

FREEPORT*      SUNNY     66  53  62 CALM      29.71R
ROCHELLE*      MOSUNNY   67  53  61 CALM      29.70R
DE KALB*       SUNNY     67  54  64 N3        29.69R
PERU*          CLOUDY    66  53  63 CALM      29.71R
$$

ILZ005-006-012>014-019>023-260100-
NORTHEAST ILLINOIS

CITY           SKY/WX    TMP DP  RH WIND       PRES   REMARKS
CHICAGO-OHARE  MOSUNNY   65  50  58 NE9       29.68R
6HR MIN TEMP:  64; 6HR MAX TEMP:  69;

CHICAGO-MIDWAY PTSUNNY   63  51  65 N9        29.68R
6HR MIN TEMP:  63; 6HR MAX TEMP:  70;

AURORA         SUNNY     68  54  60 W8        29.68S
6HR MIN TEMP:  63; 6HR MAX TEMP:  70;

LANSING*       MOSUNNY   58  53  85 N6        29.69R
JOLIET*        MOSUNNY   69  56  62 W6        29.68R
WAUKEGAN       SUNNY     61  51  70 NE8       29.67R
6HR MIN TEMP:  61; 6HR MAX TEMP:  67;

DUPAGE AIRPORT CLOUDY    65  56  72 E8        29.67R
6HR MIN TEMP:  64; 6HR MAX TEMP:  70;

KANKAKEE*      MOSUNNY   68  55  62 W7        29.69R
WHEELING       SUNNY     63  52  67 NE5       29.69R
6HR MIN TEMP:  62; 6HR MAX TEMP:  68;

MORRIS*        SUNNY     67  54  64 W8        29.68R
ROMEOVILLE*    PTSUNNY   67  58  74 E8        29.68R
NORTHERLY ISL    N/A     57  50  77 MISG        N/A
$$

LMZ740>746-260100-
SOUTHERN LAKE MICHIGAN

STATION/POSITION SKY/WX   TEMP    WIND        PRES    VSBY  WAVE
                          AIR SEA DIR/SP/G                  HT/PER
                          (F)     (DEG/KT/KT) (MB)    (MI)  (FT/S)
SOUTHERN BUOY              48 45  350/ 12/ 14 1004.0          3/ 5
WILMETTE HARBOR            50 51                N/A           3/ 5
HARRISON CRIB              53     340/ 10/ 12   N/A
BURNHAM HARBOR             56     340/  9/ 13   N/A
CALUMET HARBOR             55     340/  8/ 12 1004.9
BURNS HARBOR               52     330/  5/  6 1006.1R
MICHIGAN CITY              50     280/  6/  6   N/A
MICHIGAN CITY 6N           50 51  300/  4/  6   N/A           3/ 5
ST. JOSEPH                 52 55  320/  6/ 10 1005.0          3/ 5
$$

ILZ025>027-034>036-040-047-049-050-058-095>099-260100-
WEST-CENTRAL ILLINOIS

CITY           SKY/WX    TMP DP  RH WIND       PRES   REMARKS
QUINCY         SUNNY     71  51  49 S8        29.69S
GALESBURG*     MOSUNNY   70  52  53 S8        29.69R
MACOMB*        MOSUNNY   70  52  52 SW5       29.72S
JACKSONVILLE*  SUNNY     71  52  50 SW6       29.70S
PITTSFIELD*    SUNNY     71  53  53 S6        29.71S
$$

ILZ028>032-037-038-041>044-048-051>054-059>061-260100-
CENTRAL ILLINOIS

CITY           SKY/WX    TMP DP  RH WIND       PRES   REMARKS
PONTIAC        MOSUNNY   65  57  77 NW5       29.71R
BLOOMINGTON    SUNNY     66  55  67 NW5       29.72R
DECATUR        MOSUNNY   71  54  54 W6        29.70S
PEORIA         SUNNY     69  58  67 E6        29.69S
6HR MIN TEMP:  65; 6HR MAX TEMP:  72;

LACON*         SUNNY     66  55  67 CALM      29.70R
LINCOLN*       SUNNY     71  54  54 CALM      29.70R
SPRINGFIELD    MOSUNNY   72  54  53 W5        29.71R
6HR MIN TEMP:  69; 6HR MAX TEMP:  75;

TAYLORVILLE    PTSUNNY   71  53  52 W3        29.71R
6HR MIN TEMP:  67; 6HR MAX TEMP:  72;

$$

ILZ033-039-045-046-055>057-062-063-260100-
EAST-CENTRAL ILLINOIS

CITY           SKY/WX    TMP DP  RH WIND       PRES   REMARKS
CHAMPAIGN      SUNNY     66  55  67 NW8       29.71S
RANTOUL*       SUNNY     65  57  74 NW8       29.71S
MATTOON        SUNNY     68  59  73 N5        29.70S
PARIS*         SUNNY     65  56  74 NW8       29.72S
$$

ILZ079-100>102-260100-
SOUTHWEST ILLINOIS

CITY           SKY/WX    TMP DP  RH WIND       PRES   REMARKS
ALTON          SUNNY     72  52  49 W6        29.71R
BELLEVILLE     SUNNY     74  51  45 SW5       29.71S
CAHOKIA*       SUNNY     74  49  41 SW5       29.70S
SPARTA*        SUNNY     73  50  43 SW6       29.72S
$$

ILZ064>066-069>071-074>076-080>082-084>086-088>090-092>094-260100-
SOUTH-CENTRAL ILLINOIS

CITY           SKY/WX    TMP DP  RH WIND       PRES   REMARKS
CARBONDALE     SUNNY     73  52  47 SW10      29.72S
6HR MIN TEMP:  70; 6HR MAX TEMP:  76;

CAIRO*         SUNNY     75  51  43 SW6       29.75R
EFFINGHAM*     SUNNY     72  56  58 W8        29.73S
MT. VERNON       N/A     73  52  47 SW9       29.73R
CENTRALIA*     SUNNY     74  55  51 W5        29.71S
SALEM*         MOSUNNY   73  52  47 W6        29.72S
METROPOLIS*    SUNNY     74  51  43 W5        29.76R
$$

ILZ067-068-072-073-078-083-087-091-260100-
SOUTHEAST ILLINOIS

CITY           SKY/WX    TMP DP  RH WIND       PRES   REMARKS
LAWRENCEVILLE  MOSUNNY   71  56  58 W8        29.72R
FLORA*         SUNNY     73  53  49 W7        29.72S
FAIRFIELD*     PTSUNNY   72  52  50 SW3       29.72R
HARRISBURG*    SUNNY     73  52  47 W7        29.74R
ROBINSON*      MOSUNNY   67  59  75 N5        29.73R
CARMI*         SUNNY     72  53  51 W9        29.73R
$$

ABBREVIATIONS USED IN REMARKS
   TC - TEMPERATURE IN CELSIUS
  WCI - WIND CHILL INDEX
   HX - HEAT INDEX
  VSB - VISIBILITY
$$




USA.gov is the U.S. government's official web portal to all federal, state and local government web resources and services.